Terug naar catalogus

DELTA 1 DEB

ActiefSSO
NORAD 7166·DEBRIS·🇺🇸 United States

Gelanceerd Nov 6, 1973 vanaf Vandenberg Space Force Base

Loading…

Volgende Passages (komende 24 uur)

TLE

VersSource: Space-Track

Epoch: Sep 13, 2026, 23:20 UTC

1 07166U 73086EE  26256.97277437  .00000023  00000-0  50651-3 0  9996
2 07166 102.2438 263.8671 0014743  99.4886 319.3000 12.41505634391637

Volg DELTA 1 DEB in realtime met AllMySat

Download on the App Store